Hourly Data Report for September 30, 2017

All times are specified in Local Standard Time (LST). Add 1 hour to adjust for Daylight Saving Time where and when it is observed.

KUGLUKTUK A
NUNAVUT

67°49'00.000" N
115°08'38.000" W
22.60 m
2300903
71938
YCO

Download Data

Hourly Data (September 2017)
Hourly Data Report for September 30, 2017
Temp Definition
°C
Dew Point Temp Definition
°C
Rel Hum Definition
%
Wind Dir Definition
10's deg

Wind Spd Definition
km/h
Visibility Definition
km
Stn Press Definition
kPa
Hmdx Definition


Wind Chill Definition


Weather Definition


TIME
00:00 Legend Double Dagger 2.9 2.5 97 7 13 12.9 100.80     LegendNANA
01:00 Legend Double Dagger 2.7 2.4 98 7 14 1.2 100.86     Fog
02:00 Legend Double Dagger 2.5 2.3 98 8 13 1.6 100.93     Fog
03:00 Legend Double Dagger 2.5 2.2 98 7 9 3.2 100.97     Fog
04:00 Legend Double Dagger 2.4 2.0 97 6 13 3.6 100.98     Fog
05:00 Legend Double Dagger 2.0 1.6 97 6 12 9.7 101.00     Fog
06:00 Legend Double Dagger 1.8 1.3 96 4 10 6.4 101.04     Fog
07:00 Legend Double Dagger 1.7 1.3 98 3 10 8.1 101.07     Drizzle,Fog
08:00 Legend Double Dagger 1.9 1.3 96 1 11 9.7 101.09     Fog
09:00 Legend Double Dagger 2.2 1.4 94 2 13 9.7 101.08     Fog
10:00 Legend Double Dagger 2.4 1.3 92 2 12 8.1 101.10     Fog
11:00 Legend Double Dagger 2.3 1.4 94 36 10 9.7 101.10     Fog
12:00 Legend Double Dagger 2.4 1.5 94 36 15 12.9 101.09     LegendNANA
13:00 Legend Double Dagger 2.6 1.6 93 36 16 12.9 101.09     LegendNANA
14:00 Legend Double Dagger 2.5 1.6 94 1 14 12.9 101.11     Drizzle
15:00 Legend Double Dagger 2.7 1.4 91 35 13 16.1 101.09     Drizzle
16:00 Legend Double Dagger 2.6 1.3 91 35 13 19.3 101.10     LegendNANA
17:00 Legend Double Dagger 2.5 1.0 90 33 17 19.3 101.09     Drizzle
18:00 Legend Double Dagger 2.5 1.0 90 35 17 24.1 101.11     LegendNANA
19:00 Legend Double Dagger 2.3 0.9 90 35 18 24.1 101.11     LegendNANA
20:00 Legend Double Dagger 2.0 0.7 91 34 20 24.1 101.11     Cloudy
21:00 Legend Double Dagger 1.9 0.4 90 34 22 24.1 101.11     LegendNANA
22:00 Legend Double Dagger 1.8 -0.4 85 33 22 24.1 101.12     LegendNANA
23:00 Legend Double Dagger 1.6 -0.4 86 33 18 24.1 101.14     Cloudy

Notes on Data Quality.

Legend

  • E = Estimated
  • M = Missing
  • NA = Not Available
  • ‡ = Partner data that is not subject to review by the National Climate Archives
Date modified: